Location: Berlin
(31.0682°N, 83.6238°W)
Time: 06:04:30
(UTC+00:00)

Daily predictions for brighter satellites

Satellite Brightness Start Highest point End
(mag) Time Altitude Azimuth Time Altitude Azimuth Time Altitude Azimuth
Centaur AC-119 4.0 22:51:26 10° WSW 22:56:35 51° SSE 23:04:05 10° E
Timation 2 Rocket 4.2 22:51:24 10° S 22:58:08 71° ESE 23:05:00 10° NNE
SMAP 3.1 22:53:52 10° SSE 22:58:24 59° ENE 23:02:59 10° N
DNEPR-1 R/B 4.3 22:55:22 10° NNW 22:59:56 44° ENE 23:05:19 10° SE
NOSS 3-4 (A) 4.4 22:57:03 10° NNW 23:04:27 76° WSW 23:12:56 10° SSE
NOSS 3-4 (C) 4.4 22:57:08 10° NNW 23:04:32 77° WSW 23:13:00 10° SSE
Cosmos 2061 Rocket 4.3 23:01:12 10° S 23:07:32 77° W 23:13:49 10° N
Landsat 7 3.8 23:06:52 10° SSE 23:11:24 57° ENE 23:15:58 10° N
SL-4 R/B 1.5 23:10:51 10° NW 23:14:20 73° NE 23:18:00 10° SE
CORIOLIS 4.3 23:12:17 10° S 23:17:39 81° WSW 23:23:02 10° NNW
SPOT 1/Viking Rocket 4.3 23:16:16 10° SE 23:20:41 30° ENE 23:25:08 10° NNE
Cosmos 407 Rocket 3.8 23:17:38 10° SSW 23:22:49 70° WNW 23:27:59 10° N
CZ-2D R/B 2.7 23:20:43 10° S 23:23:52 85° WSW 23:27:01 10° NNW
ISS -1.1 23:22:55 10° WNW 23:24:47 14° NW 23:26:39 10° N
DELTA 2 R/B (1) 4.2 23:20:39 10° SW 23:25:49 41° SE 23:29:54 16° E
Cosmos 1464 Rocket 4.3 23:21:22 10° SSE 23:27:18 44° E 23:33:12 10° NNE
Cosmos 1943 Rocket 2.4 23:21:42 10° SSW 23:27:19 73° WNW 23:32:54 10° NNE
Cosmos 371 Rocket 4.2 23:23:36 10° SSE 23:27:39 28° E 23:31:10 13° NE
Cosmos 2278 Rocket 2.4 23:22:02 10° SSW 23:27:40 77° WNW 23:33:20 10° NNE
Cosmos 2151 Rocket 4.1 23:24:19 10° SSE 23:28:24 37° E 23:32:31 10° NNE
IRS-1C 4.2 23:23:50 10° SSE 23:29:08 83° WSW 23:34:29 10° NNW
Aureole 3 Rocket 2.1 23:26:14 10° S 23:29:33 76° E 23:32:34 10° N
OAO 3 Rocket 3.3 23:25:18 10° W 23:29:55 62° N 23:33:15 18° ENE
ERS-1 4.5 23:25:15 10° SSE 23:30:24 84° ENE 23:35:34 10° NNW
SJ-6F 4.2 23:27:16 10° SSE 23:31:09 68° ENE 23:35:02 10° N
Cosmos 2082 Rocket 3.5 23:28:39 10° NNE 23:32:16 17° ENE 23:33:07 17° ENE
Cosmos 304 Rocket 4.4 23:29:31 10° SSE 23:33:45 34° E 23:37:16 14° NE
Cosmos 1975 Rocket 3.2 23:31:16 10° N 23:35:37 77° W 23:39:58 10° S
Sich 1 Rocket 4.4 23:32:54 10° SSE 23:36:46 29° E 23:40:00 13° NE
MOS 1 Rocket 3.0 23:33:28 10° SSE 23:37:38 63° ENE 23:41:56 10° N
ATLAS 5 CENTAUR R/B 2.1 23:33:34 10° NNW 23:38:26 58° ENE 23:44:23 10° SE
Spot 4 Rocket 4.4 23:34:54 10° SE 23:39:34 38° ENE 23:44:14 10° N
USA 215 3.2 23:33:18 10° SE 23:39:45 68° NE 23:46:15 10° NW
Cosmos 2369 Rocket 4.1 23:37:48 10° ESE 23:38:10 11° ESE 23:38:10 11° ESE
COSMO-SKYMED 1 2.4 23:38:09 10° NNE 23:42:15 64° E 23:46:19 10° S
Okean 1 Rocket 3.7 23:39:55 10° SSE 23:43:53 34° E 23:46:31 18° NE
SKYMED 2 3.8 23:42:14 10° N 23:46:34 73° WNW 23:50:52 10° SSW
Helios 1A Rocket 2.3 23:43:38 10° NNE 23:47:01 87° E 23:50:24 10° SSW
